Temperature
-1 -1 -1 -1 -1 -1 -1 -1 -1 -0 -1 0 0 -0 1 1 1 1 1 1 1 1 1 1 1 1 1 2 2 2 2 2 2 3 2 2 3 3 3 3 2 2 2 2
-2 -1 -1 -1 -1 -1 -1 -1 -1 -1 -1 -0 0 0 0 0 1 1 1 1 1 1 1 1 1 1 1 1 1 1 1 2 2 2 2 2 2 2 2 2 2 2 2 2
-2 -2 -1 -1 -1 -1 -2 -2 -2 -1 -0 -1 -1 -1 -0 0 1 1 1 1 1 1 1 1 1 1 1 1 1 1 1 1 1 1 1 1 1 1 1 1 1 1 1 1
-3 -2 -1 1 -1 -1 -1 -2 -2 -2 -1 -1 -1 0 1 1 1 1 1 1 1 1 1 1 0 0 0 0 -0 -0 0 0 0 0 1 1 1 1 1 1 1 1 1 0
-3 -3 -2 -1 -1 -2 -2 -2 -2 -2 -2 -1 -1 -1 -0 1 1 1 0 0 0 0 0 0 -0 -0 -0 -0 -1 -1 -1 -0 -0 0 0 0 0 0 0 0 0 0 0 -0
-4 -3 -2 0 -1 -1 -1 -1 -1 -2 -2 -2 -2 -2 -1 1 1 0 0 0 0 0 -0 -0 -0 -1 -1 -1 -1 -1 -1 -1 -1 -1 -1 -1 -1 -1 -1 -1 -1 -1 -1 -1
-4 -3 -3 -2 -2 -1 -1 -0 -0 -1 -1 -1 -2 -1 0 0 0 0 -0 -0 -0 -0 -0 -1 -1 -1 -1 -1 -1 -1 -2 -2 -1 -1 -1 -1 -1 -1 -1 -1 -1 -1 -1 -1
-5 -4 -2 -2 -3 -2 -1 0 0 0 0 -0 -0 0 0 -0 -0 -0 -0 -1 -1 -1 -1 -1 -1 -2 -2 -2 -2 -2 -2 -2 -2 -2 -2 -2 -2 -2 -2 -2 -2 -2 -2 -2
-4 -2 -2 -2 -1 -0 0 -0 0 0 0 -0 -0 -0 -0 -1 -1 -1 -1 -1 -1 -1 -1 -2 -2 -2 -2 -2 -2 -2 -2 -2 -2 -2 -2 -2 -2 -2 -2 -2 -2 -2 -2 -2
-5 -4 -3 -2 -1 -1 -0 -0 -0 -0 -0 -1 -1 -1 -1 -1 -1 -1 -1 -2 -2 -2 -2 -2 -2 -2 -2 -2 -3 -3 -3 -3 -3 -3 -3 -3 -2 -3 -3 -3 -3 -3 -3 -3
-5 -5 -4 -2 -1 -0 -1 -1 -1 -1 -1 -1 -1 -1 -1 -1 -1 -2 -2 -2 -2 -2 -2 -2 -2 -2 -3 -3 -3 -3 -3 -3 -3 -3 -3 -3 -3 -3 -3 -3 -3 -3 -3 -3
-3 -3 -3 -2 -1 -1 -1 -1 -1 -1 -1 -1 -1 -1 -2 -2 -2 -2 -2 -2 -3 -3 -3 -3 -3 -3 -3 -3 -3 -3 -3 -3 -4 -4 -4 -4 -4 -3 -3 -4 -4 -4 -4 -4
-2 -1 -1 -1 -1 -1 -1 -1 -1 -2 -2 -2 -2 -2 -2 -2 -2 -2 -3 -3 -3 -3 -3 -3 -3 -3 -3 -3 -4 -4 -4 -4 -4 -4 -4 -4 -4 -4 -4 -4 -4 -4 -4 -4
-2 -2 -2 -2 -2 -2 -2 -2 -2 -2 -2 -2 -2 -2 -2 -2 -3 -3 -3 -3 -3 -3 -3 -3 -4 -4 -4 -4 -4 -4 -4 -4 -4 -4 -4 -4 -4 -4 -4 -4 -4 -4 -4 -4
-2 -2 -2 -2 -2 -2 -2 -3 -3 -3 -2 -3 -3 -3 -3 -3 -3 -3 -3 -3 -4 -4 -4 -4 -4 -4 -4 -4 -4 -5 -5 -5 -5 -5 -5 -5 -5 -5 -5 -5 -5 -5 -5 -5
-3 -3 -3 -3 -3 -3 -3 -3 -3 -3 -3 -3 -3 -3 -3 -4 -3 -3 -4 -4 -4 -4 -4 -4 -4 -4 -5 -5 -5 -5 -5 -5 -5 -5 -5 -5 -5 -5 -5 -5 -5 -5 -5 -5
-4 -4 -4 -4 -3 -3 -3 -4 -4 -4 -4 -4 -4 -4 -4 -4 -4 -4 -4 -4 -5 -5 -5 -5 -5 -5 -5 -5 -5 -5 -5 -6 -6 -6 -6 -5 -5 -5 -6 -6 -6 -6 -6 -6
-4 -4 -4 -4 -4 -4 -4 -4 -4 -4 -4 -4 -4 -5 -5 -5 -5 -5 -5 -5 -5 -5 -5 -5 -5 -5 -5 -6 -6 -6 -6 -6 -6 -6 -6 -6 -6 -6 -6 -6 -6 -6 -6 -6
-4 -4 -4 -4 -4 -4 -5 -5 -5 -5 -5 -5 -5 -5 -5 -5 -5 -6 -6 -6 -6 -5 -5 -6 -6 -6 -6 -6 -6 -6 -6 -6 -6 -6 -6 -6 -6 -6 -6 -6 -6 -6 -6 -6
-5 -5 -5 -5 -5 -5 -5 -5 -5 -5 -5 -5 -5 -6 -6 -6 -6 -6 -6 -6 -6 -6 -6 -6 -6 -6 -6 -6 -6 -6 -7 -7 -6 -6 -7 -7 -7 -7 -7 -7 -7 -7 -7 -7
-5 -5 -5 -5 -5 -5 -6 -6 -6 -6 -6 -6 -6 -6 -6 -6 -6 -7 -7 -6 -6 -6 -6 -6 -7 -7 -6 -6 -7 -7 -7 -7 -7 -7 -7 -7 -7 -7 -7 -7 -7 -7 -7 -7
-6 -6 -6 -6 -6 -6 -6 -6 -6 -6 -6 -6 -6 -6 -6 -7 -7 -7 -7 -7 -7 -7 -7 -7 -7 -7 -7 -7 -7 -7 -7 -7 -7 -7 -7 -7 -7 -7 -7 -7 -7 -7 -7 -7
-6 -6 -6 -6 -6 -6 -6 -6 -6 -6 -6 -6 -7 -7 -7 -7 -7 -7 -7 -7 -7 -7 -7 -7 -7 -7 -7 -7 -7 -7 -7 -7 -7 -7 -7 -8 -8 -8 -8 -8 -8 -7 -7 -7
-7 -7 -7 -7 -7 -7 -7 -7 -7 -7 -7 -7 -7 -7 -7 -7 -7 -7 -7 -7 -7 -7 -7 -7 -7 -7 -7 -7 -7 -7 -7 -7 -7 -8 -8 -8 -8 -8 -8 -8 -8 -8 -8 -8
-7 -7 -7 -7 -7 -7 -7 -7 -7 -7 -7 -7 -7 -7 -8 -8 -8 -8 -8 -8 -8 -8 -8 -8 -8 -8 -7 -7 -7 -7 -8 -8 -8 -8 -8 -8 -8 -8 -8 -8 -8 -8 -8 -8
-7 -7 -7 -8 -8 -8 -8 -8 -8 -8 -8 -8 -8 -8 -8 -8 -8 -8 -8 -8 -8 -8 -8 -8 -8 -8 -8 -8 -8 -8 -8 -8 -8 -8 -8 -8 -8 -8 -8 -8 -8 -8 -8 -8
-8 -8 -8 -8 -8 -8 -8 -8 -8 -8 -8 -8 -8 -8 -8 -8 -8 -8 -8 -8 -8 -8 -8 -8 -8 -8 -8 -8 -8 -8 -8 -8 -8 -8 -8 -8 -8 -8 -8 -8 -8 -8 -8 -8
Wind_Speed
4 3 3 5 7 7 8 8 9 9 9 12 9 8 7 6 5 5 5 5 5 5 5 5 5 5 5 5 4 3 1 1 1 1 1 2 2 2 2 2 2 2 2 2
3 2 2 5 8 9 10 8 9 9 12 10 8 5 6 6 5 5 6 6 6 5 5 5 5 5 5 5 4 3 1 1 1 1 1 1 2 2 2 2 2 2 2 2
3 2 2 7 9 10 7 7 8 11 11 5 5 7 7 6 5 6 7 6 6 5 5 5 5 4 4 4 4 3 2 2 1 1 1 1 1 1 1 1 2 2 2 1
1 1 6 7 2 7 8 8 9 8 6 5 7 8 7 6 6 7 6 6 6 5 5 4 4 4 4 3 3 3 3 2 1 0 0 1 1 1 1 1 1 1 1 1
2 3 7 7 3 4 6 7 8 10 9 6 4 4 6 6 5 6 6 5 5 5 4 3 3 3 3 3 2 3 3 3 2 1 1 1 1 1 1 1 1 1 1 2
3 3 7 6 2 2 3 6 5 7 7 5 0 2 6 4 4 4 4 4 3 3 2 2 3 2 1 2 2 3 3 3 3 1 1 1 1 1 1 1 1 1 1 1
5 5 8 6 2 4 4 6 3 5 5 5 6 7 5 4 4 4 4 3 2 2 2 2 2 1 2 2 3 4 3 3 3 2 2 2 1 1 1 1 1 1 1 1
5 5 9 3 5 6 7 3 2 3 4 5 6 6 5 4 4 4 4 3 2 1 2 2 2 1 2 3 4 3 2 3 3 3 2 1 1 1 1 1 1 1 1 1
8 8 4 5 6 5 3 3 4 4 4 4 5 6 5 4 4 4 4 3 2 2 2 3 2 2 3 4 3 2 2 3 3 2 2 1 1 1 1 1 1 1 1 2
5 8 6 6 6 5 4 5 5 5 5 4 5 6 6 5 4 4 4 3 2 2 3 4 3 3 3 3 2 2 2 3 2 2 2 1 1 1 2 2 2 2 2 2
7 7 6 6 6 7 6 5 5 5 5 5 5 6 6 5 5 4 4 3 2 2 4 4 4 4 3 2 2 2 2 2 2 2 2 2 2 2 2 3 4 3 3 3
9 8 6 7 6 5 6 7 7 6 6 5 5 6 6 5 5 4 4 3 3 3 4 4 4 4 4 3 2 2 2 2 2 2 2 1 2 2 2 3 4 5 5 5
8 5 6 6 5 4 5 6 6 6 6 6 5 5 5 5 4 4 4 4 4 4 4 4 4 4 4 3 2 2 3 3 2 2 2 2 2 2 2 2 2 3 4 5
6 4 5 5 5 5 4 5 4 4 4 4 4 4 3 4 4 4 5 5 4 4 4 3 4 5 4 3 2 3 3 3 3 2 2 2 2 2 2 2 2 2 3 4
5 5 6 4 4 3 3 2 3 4 4 4 3 3 3 4 5 5 5 4 3 3 3 3 4 5 4 3 3 3 2 2 2 2 2 3 3 2 2 2 2 2 2 3
4 3 4 4 5 4 3 3 4 5 5 4 4 4 4 4 4 5 4 3 3 4 4 4 5 4 3 2 2 2 3 3 3 2 2 2 3 3 2 2 2 2 2 2
4 5 5 5 6 5 5 5 6 6 5 5 5 5 3 3 3 4 4 3 4 5 5 5 5 4 3 3 2 2 2 2 3 2 2 3 3 3 3 3 3 3 3 3
6 6 6 6 6 6 6 5 5 5 6 5 4 4 4 4 5 5 4 3 3 4 4 4 4 3 3 3 2 2 2 2 2 2 2 3 3 3 3 3 3 3 2 3
3 4 5 5 5 5 5 5 5 5 5 4 4 4 4 5 5 4 3 2 3 4 4 4 4 2 3 3 3 2 2 2 2 2 2 3 3 2 2 3 3 3 3 3
3 3 3 4 4 4 5 4 4 4 4 3 3 3 4 4 3 3 2 3 4 4 3 3 3 3 3 3 3 2 2 2 2 2 2 2 2 2 2 2 2 2 2 2
3 3 3 3 3 3 3 3 3 4 3 3 3 4 4 4 3 2 2 4 4 4 3 4 2 3 3 3 2 2 2 2 2 2 2 2 2 2 2 2 2 2 2 2
3 3 3 3 3 4 3 3 3 3 3 3 3 3 3 3 2 3 3 4 4 4 2 2 2 4 3 2 1 1 2 2 2 2 2 2 2 2 2 2 2 3 2 3
3 3 3 3 3 4 4 3 2 2 3 3 3 3 3 3 2 2 3 3 2 4 2 2 3 4 2 0 1 1 2 2 2 2 2 2 2 2 3 3 3 3 3 3
3 2 2 2 2 2 3 3 3 2 2 3 3 3 2 2 2 2 2 3 4 3 2 3 4 3 1 0 1 1 1 2 2 2 2 2 2 2 2 3 3 3 3 3
2 2 2 2 2 2 3 3 2 2 2 2 2 2 2 2 2 2 2 2 3 3 1 2 3 2 1 0 1 1 1 2 2 2 2 2 2 2 2 2 2 2 2 3
2 2 2 2 2 2 2 2 2 2 2 2 2 2 1 1 1 1 1 1 2 2 2 1 1 2 1 1 1 1 1 1 2 1 1 1 2 2 2 2 2 2 3 3
2 2 2 2 2 1 1 1 2 2 2 2 2 2 1 1 1 1 1 1 1 1 1 1 1 1 1 0 0 1 1 1 1 1 1 1 1 2 2 2 2 3 3 3
Wind_Direction
259 250 202 228 228 207 206 209 218 243 247 264 272 276 282 284 293 300 296 299 301 302 308 316 324 327 328 325 325 316 303 294 259 211 163 147 138 137 140 142 146 153 155 149
281 257 228 256 242 221 226 227 236 256 266 265 271 276 278 278 283 289 292 292 294 297 302 307 312 316 322 325 321 324 317 288 262 136 129 135 139 132 135 139 138 143 148 157
256 287 346 263 230 206 208 212 203 231 248 268 277 275 269 272 274 276 282 284 283 282 280 286 293 302 308 310 318 330 329 328 338 146 150 160 157 140 152 160 152 159 155 168
204 70 236 250 199 194 209 234 218 233 255 252 255 270 269 256 256 268 276 280 279 278 280 284 288 301 306 318 328 330 328 325 327 338 197 179 155 174 183 167 177 186 183 194
161 229 271 284 236 184 200 257 225 230 252 263 280 313 288 259 249 253 261 271 271 269 272 281 291 300 316 329 335 333 323 316 312 288 241 212 194 225 216 185 209 213 201 201
163 201 242 258 243 183 137 273 241 210 234 246 142 300 281 288 283 280 282 283 280 280 282 283 292 300 310 308 310 303 302 306 312 307 268 243 237 243 253 202 221 230 230 230
201 229 260 256 223 126 172 249 253 204 219 211 212 233 262 291 297 291 291 290 284 278 279 275 281 279 280 295 290 293 301 311 316 312 282 245 237 244 217 201 201 228 238 255
176 215 250 204 147 184 223 261 237 230 228 227 241 259 271 282 288 297 305 306 298 291 291 292 284 266 274 281 290 303 306 309 309 310 301 275 199 238 227 183 195 237 237 265
199 220 254 189 205 229 231 249 258 252 255 245 254 265 272 278 284 291 288 290 287 274 291 297 286 263 266 284 298 304 304 303 305 309 307 274 222 215 222 212 214 237 237 248
246 260 261 253 254 259 247 248 263 263 261 247 251 263 268 273 278 282 284 280 275 275 283 291 294 288 274 288 296 289 291 296 301 307 313 313 286 236 222 219 225 235 245 256
255 274 290 270 248 248 254 258 269 271 255 243 246 262 261 266 266 266 275 275 262 256 266 279 291 294 294 291 282 278 279 284 294 299 298 304 296 267 250 241 230 232 240 242
238 233 223 254 257 248 247 256 257 261 270 263 242 253 261 262 261 261 268 271 267 262 265 276 284 289 294 288 266 258 276 277 274 277 284 286 295 314 294 264 265 261 256 259
239 241 234 259 268 254 247 255 258 252 253 266 265 251 252 262 264 260 262 261 257 257 259 266 273 282 287 284 264 248 255 262 263 265 264 267 272 279 302 319 296 280 273 270
236 233 254 253 256 259 256 261 264 268 264 260 262 260 253 260 267 263 262 262 259 257 256 258 263 274 282 279 269 264 261 260 258 254 254 257 259 260 260 269 293 305 301 289
235 225 236 257 269 272 270 270 276 279 281 283 268 257 251 252 261 266 268 269 265 257 258 258 262 273 284 276 269 266 265 262 261 256 251 252 255 253 255 260 266 281 299 301
242 241 238 247 256 262 262 253 254 266 272 273 271 267 258 253 258 266 267 254 246 255 257 256 259 266 272 265 269 270 267 269 271 259 252 252 251 245 246 247 254 260 268 278
213 240 243 252 258 264 257 249 246 256 264 264 265 270 273 272 273 271 270 259 249 253 254 251 258 266 262 255 253 257 263 265 271 266 252 247 245 239 235 235 239 250 262 271
223 233 237 242 251 260 267 262 253 255 258 260 267 268 263 256 259 267 273 276 278 282 273 261 260 264 258 254 250 247 249 252 252 253 258 255 249 237 231 232 237 247 262 271
244 249 255 258 254 253 259 264 262 261 263 261 258 257 257 256 257 263 266 260 263 273 280 273 271 268 262 260 265 235 242 254 262 264 265 264 266 245 234 233 239 243 250 258
265 266 269 275 276 263 263 266 265 269 266 254 252 260 268 267 262 259 254 255 255 258 267 269 265 260 260 259 267 235 241 248 255 264 268 265 260 254 243 240 240 243 247 251
285 282 282 286 291 291 281 273 269 275 281 261 246 253 264 274 271 258 254 271 278 266 262 265 261 260 261 261 261 238 239 247 252 252 256 259 262 263 260 256 254 254 253 254
291 286 289 293 295 300 301 293 274 273 278 274 264 259 264 274 277 275 259 255 269 276 273 252 258 268 277 271 224 233 243 249 254 254 250 253 253 256 260 261 260 262 261 260
289 286 290 292 288 292 303 298 281 273 270 270 266 261 258 259 255 260 279 273 268 278 278 254 274 283 294 260 219 231 239 243 251 255 254 253 251 252 256 260 262 262 263 265
296 299 296 295 292 294 301 302 299 287 273 273 268 258 251 264 281 265 266 281 291 295 281 275 285 293 326 94 237 244 247 250 255 259 259 258 257 257 257 258 262 264 262 262
299 299 300 304 297 284 284 301 315 312 308 302 296 287 265 243 247 271 284 284 297 314 310 299 306 321 343 280 261 259 261 259 256 253 251 263 268 268 267 264 263 265 269 269
304 299 292 282 275 278 282 285 291 295 300 309 313 309 307 304 278 276 286 289 291 318 328 317 321 327 322 283 266 270 272 287 301 297 283 279 279 279 280 282 281 277 273 271
317 312 311 317 312 292 279 275 278 286 284 280 292 297 306 314 315 314 310 312 321 332 334 335 329 323 315 303 297 299 299 296 290 286 286 286 281 278 283 285 288 287 285 280
Height
1494 1491 1493 1493 1493 1495 1496 1495 1495 1488 1486 1476 1474 1474 1472 1471 1469 1468 1466 1465 1463 1461 1460 1457 1455 1454 1452 1451 1450 1449 1449 1448 1448 1449 1450 1451 1453 1454 1455 1457 1458 1459 1460 1461
1494 1491 1491 1491 1487 1488 1489 1489 1488 1485 1480 1472 1471 1471 1469 1468 1467 1465 1464 1463 1461 1459 1457 1455 1454 1452 1451 1449 1448 1447 1446 1446 1446 1447 1448 1449 1450 1451 1452 1453 1454 1455 1456 1457
1494 1493 1490 1487 1479 1480 1482 1480 1481 1479 1472 1469 1469 1468 1466 1465 1464 1463 1461 1460 1459 1457 1455 1454 1452 1451 1449 1447 1446 1445 1444 1444 1444 1444 1445 1446 1447 1448 1448 1450 1451 1452 1453 1454
1496 1495 1491 1473 1470 1471 1473 1472 1472 1470 1467 1467 1466 1464 1463 1462 1462 1460 1459 1457 1456 1454 1453 1451 1450 1449 1447 1446 1445 1443 1443 1442 1442 1442 1443 1443 1444 1445 1446 1447 1448 1448 1449 1450
1496 1495 1485 1472 1469 1470 1471 1469 1465 1465 1464 1464 1463 1462 1459 1459 1458 1457 1456 1455 1453 1452 1451 1449 1448 1446 1445 1444 1443 1442 1441 1441 1440 1441 1441 1441 1441 1442 1443 1444 1445 1445 1446 1447
1495 1492 1484 1467 1465 1465 1468 1467 1459 1459 1460 1461 1461 1464 1458 1455 1455 1454 1453 1452 1450 1449 1448 1446 1446 1445 1443 1442 1441 1440 1439 1439 1439 1439 1439 1439 1439 1440 1440 1441 1441 1442 1443 1444
1491 1489 1477 1465 1464 1465 1471 1463 1456 1455 1456 1457 1457 1457 1455 1453 1452 1451 1450 1449 1447 1446 1445 1444 1443 1443 1442 1441 1440 1439 1438 1437 1437 1437 1437 1437 1437 1437 1438 1438 1439 1439 1440 1441
1488 1486 1474 1461 1462 1463 1459 1455 1454 1453 1453 1453 1452 1452 1451 1450 1449 1448 1447 1445 1444 1443 1442 1442 1441 1440 1439 1439 1438 1437 1436 1435 1435 1434 1434 1434 1434 1435 1435 1436 1436 1436 1437 1437
1470 1464 1457 1456 1455 1454 1454 1453 1452 1451 1451 1451 1450 1449 1448 1447 1446 1445 1444 1443 1442 1441 1440 1439 1439 1438 1437 1436 1435 1435 1434 1433 1432 1432 1432 1432 1432 1432 1432 1433 1433 1433 1433 1434
1465 1457 1453 1452 1451 1451 1451 1450 1450 1449 1449 1448 1447 1446 1445 1444 1443 1442 1441 1440 1439 1438 1437 1436 1436 1435 1434 1434 1433 1432 1431 1431 1430 1429 1429 1429 1429 1430 1430 1430 1430 1430 1430 1431
1460 1453 1451 1447 1447 1447 1447 1447 1447 1446 1445 1445 1444 1443 1442 1440 1440 1439 1438 1438 1437 1436 1435 1434 1433 1432 1432 1431 1430 1429 1429 1428 1427 1427 1426 1426 1427 1427 1427 1427 1428 1428 1428 1428
1449 1446 1446 1443 1443 1444 1444 1443 1443 1442 1441 1441 1440 1439 1438 1437 1436 1436 1435 1434 1434 1433 1432 1431 1430 1429 1429 1428 1428 1427 1426 1425 1425 1424 1424 1424 1424 1424 1424 1425 1425 1425 1426 1426
1440 1440 1440 1439 1440 1440 1440 1439 1438 1438 1437 1436 1436 1435 1434 1433 1432 1432 1431 1431 1430 1429 1429 1428 1427 1426 1426 1425 1424 1424 1423 1422 1422 1422 1421 1421 1421 1421 1421 1421 1422 1422 1422 1422
1436 1437 1436 1435 1436 1436 1435 1435 1434 1433 1433 1432 1432 1431 1430 1429 1429 1428 1428 1427 1427 1426 1425 1424 1424 1423 1423 1422 1421 1421 1420 1420 1419 1419 1418 1418 1418 1418 1418 1418 1418 1418 1419 1419
1432 1432 1432 1431 1431 1431 1431 1430 1430 1429 1428 1427 1427 1427 1426 1425 1425 1424 1424 1424 1423 1422 1421 1421 1420 1420 1420 1419 1418 1417 1417 1416 1416 1415 1415 1415 1415 1415 1415 1415 1415 1415 1415 1415
1428 1428 1428 1427 1427 1426 1426 1426 1425 1424 1424 1423 1423 1422 1422 1421 1421 1421 1420 1420 1419 1418 1418 1417 1416 1416 1416 1415 1415 1414 1413 1413 1413 1412 1412 1411 1411 1412 1412 1412 1412 1412 1412 1412
1423 1423 1423 1422 1422 1422 1422 1422 1421 1420 1420 1419 1419 1418 1418 1417 1417 1416 1416 1416 1415 1414 1414 1413 1413 1413 1412 1412 1411 1410 1410 1410 1409 1409 1408 1408 1408 1408 1408 1408 1408 1409 1409 1409
1419 1419 1419 1418 1418 1417 1417 1417 1416 1416 1415 1415 1415 1414 1413 1413 1412 1412 1412 1411 1411 1410 1410 1410 1409 1409 1408 1408 1408 1407 1407 1406 1406 1405 1405 1405 1405 1404 1405 1405 1405 1406 1406 1406
1416 1415 1415 1415 1414 1414 1413 1412 1412 1412 1411 1411 1410 1409 1409 1409 1408 1408 1408 1407 1406 1406 1406 1406 1406 1405 1405 1405 1404 1404 1404 1403 1403 1402 1402 1402 1401 1401 1402 1402 1402 1402 1403 1403
1412 1412 1411 1411 1410 1410 1409 1408 1408 1407 1407 1407 1406 1406 1405 1405 1404 1404 1403 1403 1403 1403 1403 1402 1402 1402 1402 1401 1401 1401 1400 1400 1400 1399 1399 1399 1398 1398 1399 1399 1399 1399 1399 1400
1408 1408 1408 1407 1407 1406 1406 1405 1404 1404 1404 1403 1403 1402 1402 1401 1401 1400 1400 1399 1399 1400 1399 1399 1399 1399 1398 1398 1398 1398 1397 1397 1397 1397 1396 1396 1396 1396 1396 1396 1396 1396 1396 1396
1406 1405 1405 1404 1404 1403 1403 1402 1402 1401 1400 1400 1400 1399 1398 1398 1397 1397 1397 1397 1396 1396 1396 1396 1396 1396 1396 1395 1395 1395 1395 1394 1394 1394 1394 1394 1393 1393 1393 1393 1393 1393 1393 1393
1403 1403 1402 1402 1401 1400 1400 1399 1399 1398 1397 1397 1396 1396 1395 1395 1395 1394 1394 1394 1394 1394 1393 1393 1393 1393 1393 1393 1392 1392 1392 1392 1392 1391 1391 1391 1391 1391 1390 1390 1390 1390 1390 1390
1401 1401 1400 1400 1399 1398 1397 1396 1396 1395 1395 1394 1394 1393 1393 1392 1392 1392 1392 1392 1391 1391 1391 1391 1391 1391 1391 1390 1390 1390 1390 1389 1389 1389 1389 1389 1388 1388 1388 1388 1387 1387 1387 1387
1400 1399 1398 1397 1396 1396 1395 1394 1393 1393 1392 1392 1392 1391 1391 1391 1390 1390 1390 1389 1389 1389 1388 1388 1389 1389 1388 1388 1388 1388 1388 1387 1387 1387 1386 1386 1386 1386 1385 1385 1385 1385 1385 1384
1398 1397 1396 1395 1395 1394 1393 1392 1391 1391 1390 1389 1389 1389 1389 1388 1388 1388 1387 1387 1387 1387 1386 1386 1386 1387 1387 1386 1386 1386 1386 1385 1385 1385 1384 1384 1384 1383 1383 1383 1382 1382 1382 1381
1396 1395 1394 1393 1393 1392 1391 1390 1389 1389 1388 1388 1387 1387 1387 1386 1386 1386 1385 1385 1385 1385 1385 1385 1385 1385 1385 1385 1384 1384 1384 1383 1383 1383 1382 1382 1382 1381 1381 1380 1380 1379 1379 1379